When you browse on this site, cookies collect data to enhance your experience and personalize the content and advertising you see.
Visit our Privacy Policy to learn more. By continuing to use the site, you agree to this use of cookies and data.
  • In Hungary
  • List of Countries
  • For 7 days
  • Water Temperature
  • Satellite Maps
  • Weather Map
  • News
  • Weather Widgets
  • user-avatar
    Login

    Hourly Weather Kutno

    Today, 20 February, Wednesday

    Time Temperature Precipitation Wind Pressure Humidity
    00:00 +3°C° 0 mm 5 mps 750 mmHg 86%
    01:00 +3°C° 0 mm 4 mps 750 mmHg 86%
    02:00 +2°C° 0 mm 5 mps 750 mmHg 88%
    03:00 +2°C° 0 mm 5 mps 750 mmHg 89%
    04:00 +1°C° 0 mm 5 mps 750 mmHg 90%
    05:00 +2°C° 0 mm 5 mps 751 mmHg 89%
    06:00 +2°C° 0 mm 6 mps 751 mmHg 88%
    07:00 +2°C° 0 mm 6 mps 751 mmHg 87%
    08:00 +2°C° 0.1 mm 6 mps 752 mmHg 82%
    09:00 +3°C° 0.1 mm 7 mps 752 mmHg 78%
    10:00 +3°C° 0.1 mm 7 mps 753 mmHg 73%
    11:00 +3°C° 0.1 mm 7 mps 753 mmHg 71%
    12:00 +4°C° 0.1 mm 7 mps 753 mmHg 69%
    13:00 +4°C° 0.1 mm 7 mps 753 mmHg 67%
    14:00 +4°C° 0 mm 7 mps 754 mmHg 68%
    15:00 +4°C° 0 mm 7 mps 754 mmHg 69%
    16:00 +4°C° 0 mm 6 mps 754 mmHg 70%
    17:00 +3°C° 0 mm 6 mps 754 mmHg 72%
    18:00 +3°C° 0 mm 5 mps 755 mmHg 74%
    19:00 +3°C° 0 mm 5 mps 755 mmHg 77%
    20:00 +3°C° 0 mm 5 mps 755 mmHg 78%
    21:00 +4°C° 0 mm 4 mps 756 mmHg 79%
    22:00 +3°C° 0 mm 4 mps 756 mmHg 81%
    23:00 +3°C° 0 mm 3 mps 756 mmHg 84%

    Tomorrow, 21 February, Thursday

    Time Temperature Precipitation Wind Pressure Humidity
    00:00 +3°C° 0 mm 3 mps 756 mmHg 87%
    01:00 +2°C° 0 mm 3 mps 756 mmHg 91%
    02:00 +2°C° 0 mm 3 mps 756 mmHg 91%
    03:00 +2°C° 0 mm 3 mps 756 mmHg 92%
    04:00 +2°C° 0 mm 3 mps 756 mmHg 93%
    05:00 +3°C° 0.2 mm 3 mps 756 mmHg 93%
    06:00 +3°C° 0.2 mm 3 mps 756 mmHg 93%
    07:00 +3°C° 0.2 mm 4 mps 756 mmHg 94%
    08:00 +4°C° 0.2 mm 4 mps 756 mmHg 91%
    09:00 +3°C° 0.2 mm 5 mps 756 mmHg 87%
    10:00 +3°C° 0.2 mm 5 mps 756 mmHg 84%
    11:00 +3°C° 0.7 mm 6 mps 755 mmHg 85%
    12:00 +3°C° 0.7 mm 6 mps 755 mmHg 86%
    13:00 +3°C° 0.7 mm 6 mps 755 mmHg 86%
    14:00 +3°C° 1 mm 6 mps 754 mmHg 87%
    15:00 +3°C° 1 mm 6 mps 754 mmHg 88%
    16:00 +3°C° 1 mm 6 mps 754 mmHg 88%
    17:00 +3°C° 0.6 mm 6 mps 753 mmHg 89%
    18:00 +3°C° 0.6 mm 6 mps 753 mmHg 89%
    19:00 +3°C° 0.6 mm 6 mps 753 mmHg 90%
    20:00 +5°C° 0.6 mm 5 mps 753 mmHg 91%
    21:00 +5°C° 0.6 mm 5 mps 753 mmHg 91%
    22:00 +5°C° 0.6 mm 5 mps 753 mmHg 92%
    23:00 +5°C° 0.5 mm 5 mps 753 mmHg 92%

    Day after tomorrow, 22 February, Friday

    Time Temperature Precipitation Wind Pressure Humidity
    00:00 +5°C° 0.5 mm 5 mps 753 mmHg 93%
    01:00 +5°C° 0.5 mm 5 mps 753 mmHg 93%
    02:00 +3°C° 0.5 mm 5 mps 754 mmHg 91%
    03:00 +1°C° 0.5 mm 6 mps 754 mmHg 88%
    04:00 -1°C° 0.5 mm 7 mps 755 mmHg 86%
    05:00 -2°C° 0 mm 7 mps 756 mmHg 81%
    06:00 -3°C° 0 mm 7 mps 758 mmHg 77%
    07:00 -4°C° 0 mm 7 mps 759 mmHg 72%
    08:00 -4°C° 0 mm 7 mps 761 mmHg 68%
    09:00 -4°C° 0 mm 7 mps 762 mmHg 64%
    10:00 -3°C° 0 mm 6 mps 763 mmHg 59%
    11:00 -3°C° 0 mm 6 mps 764 mmHg 56%
    12:00 -3°C° 0 mm 6 mps 765 mmHg 52%
    13:00 -3°C° 0 mm 6 mps 766 mmHg 49%
    14:00 -2°C° 0 mm 5 mps 766 mmHg 50%
    15:00 -2°C° 0 mm 5 mps 766 mmHg 51%
    16:00 -4°C° 0 mm 5 mps 767 mmHg 51%
    17:00 -3°C° 0 mm 4 mps 767 mmHg 54%
    18:00 -4°C° 0 mm 4 mps 768 mmHg 57%
    19:00 -5°C° 0 mm 4 mps 769 mmHg 59%
    20:00 -5°C° 0 mm 4 mps 769 mmHg 57%
    21:00 -5°C° 0 mm 4 mps 770 mmHg 54%
    22:00 -5°C° 0 mm 4 mps 770 mmHg 51%
    23:00 -5°C° 0 mm 4 mps 770 mmHg 48%

    23 February, Saturday

    Time Temperature Precipitation Wind Pressure Humidity
    00:00 -5°C° 0 mm 4 mps 771 mmHg 45%
    01:00 -5°C° 0 mm 3 mps 771 mmHg 42%
    02:00 -6°C° 0 mm 3 mps 771 mmHg 41%
    03:00 -6°C° 0 mm 3 mps 770 mmHg 41%
    04:00 -5°C° 0 mm 2 mps 770 mmHg 41%
    05:00 -5°C° 0 mm 2 mps 771 mmHg 42%
    06:00 -5°C° 0 mm 2 mps 771 mmHg 43%
    07:00 -5°C° 0 mm 2 mps 771 mmHg 45%
    08:00 -5°C° 0 mm 2 mps 772 mmHg 42%
    09:00 -4°C° 0 mm 2 mps 772 mmHg 38%
    10:00 -3°C° 0 mm 2 mps 772 mmHg 35%
    11:00 -3°C° 0 mm 2 mps 772 mmHg 33%
    12:00 0°C° 0 mm 1 mps 771 mmHg 31%
    13:00 +1°C° 0 mm 1 mps 771 mmHg 28%
    14:00 +1°C° 0 mm 1 mps 771 mmHg 30%
    15:00 +1°C° 0 mm 1 mps 771 mmHg 31%
    16:00 -1°C° 0 mm 2 mps 771 mmHg 32%
    17:00 0°C° 0 mm 1 mps 771 mmHg 36%
    18:00 -1°C° 0 mm 1 mps 770 mmHg 39%
    19:00 -1°C° 0 mm 1 mps 770 mmHg 42%
    20:00 -1°C° 0 mm 1 mps 770 mmHg 42%
    21:00 -1°C° 0 mm 1 mps 770 mmHg 41%
    22:00 -1°C° 0 mm 0 mps 770 mmHg 41%
    23:00 0°C° 0 mm 1 mps 770 mmHg 41%

    24 February, Sunday

    Time Temperature Precipitation Wind Pressure Humidity
    00:00 0°C° 0 mm 1 mps 770 mmHg 41%
    01:00 0°C° 0 mm 1 mps 770 mmHg 41%
    02:00 0°C° 0 mm 1 mps 769 mmHg 42%
    03:00 -2°C° 0 mm 2 mps 769 mmHg 42%
    04:00 -2°C° 0 mm 2 mps 769 mmHg 43%
    05:00 -2°C° 0 mm 2 mps 769 mmHg 44%
    06:00 -3°C° 0 mm 2 mps 769 mmHg 44%
    07:00 -3°C° 0 mm 2 mps 768 mmHg 45%
    08:00 -2°C° 0 mm 2 mps 768 mmHg 42%
    09:00 -1°C° 0 mm 2 mps 768 mmHg 39%
    10:00 0°C° 0 mm 3 mps 768 mmHg 36%
    11:00 +1°C° 0 mm 3 mps 768 mmHg 37%
    12:00 +2°C° 0 mm 3 mps 768 mmHg 38%
    13:00 +3°C° 0 mm 3 mps 768 mmHg 39%
    14:00 +4°C° 0 mm 2 mps 767 mmHg 45%
    15:00 +3°C° 0 mm 2 mps 767 mmHg 50%
    16:00 +3°C° 0 mm 2 mps 767 mmHg 56%
    17:00 +2°C° 0 mm 2 mps 767 mmHg 60%
    18:00 +2°C° 0 mm 1 mps 767 mmHg 63%
    19:00 +1°C° 0 mm 1 mps 767 mmHg 67%
    20:00 +1°C° 0 mm 1 mps 767 mmHg 68%
    21:00 +1°C° 0 mm 1 mps 767 mmHg 68%
    22:00 +1°C° 0 mm 1 mps 767 mmHg 69%
    23:00 -1°C° 0 mm 2 mps 767 mmHg 70%

    25 February, Monday

    Time Temperature Precipitation Wind Pressure Humidity
    00:00 -1°C° 0 mm 2 mps 767 mmHg 70%
    01:00 -1°C° 0 mm 2 mps 767 mmHg 71%
    02:00 -1°C° 0 mm 2 mps 767 mmHg 71%
    03:00 -1°C° 0 mm 2 mps 767 mmHg 71%
    04:00 -1°C° 0 mm 3 mps 766 mmHg 72%
    05:00 -1°C° 0 mm 3 mps 766 mmHg 72%
    06:00 -1°C° 0 mm 3 mps 766 mmHg 73%
    07:00 -1°C° 0 mm 3 mps 766 mmHg 74%
    08:00 0°C° 0 mm 3 mps 766 mmHg 72%
    09:00 +1°C° 0 mm 3 mps 766 mmHg 71%
    10:00 +1°C° 0 mm 4 mps 766 mmHg 69%
    11:00 +4°C° 0 mm 4 mps 766 mmHg 70%
    12:00 +5°C° 0 mm 5 mps 766 mmHg 71%
    13:00 +6°C° 0 mm 5 mps 766 mmHg 73%
    14:00 +6°C° 0 mm 5 mps 766 mmHg 70%
    15:00 +6°C° 0 mm 4 mps 765 mmHg 67%
    16:00 +6°C° 0 mm 4 mps 765 mmHg 64%
    17:00 +5°C° 0 mm 4 mps 766 mmHg 69%
    18:00 +3°C° 0 mm 4 mps 766 mmHg 74%
    19:00 +1°C° 0 mm 4 mps 766 mmHg 78%
    20:00 +1°C° 0 mm 4 mps 766 mmHg 81%
    21:00 +1°C° 0 mm 3 mps 766 mmHg 84%
    22:00 0°C° 0 mm 3 mps 766 mmHg 87%
    23:00 0°C° 0 mm 3 mps 766 mmHg 88%
    Show more